Location: Fairhaven (historical)
(39.8000°N, 99.6823°W)
Time: 22:00:26
(UTC+00:00)

Daily predictions for brighter satellites

Satellite Brightness Start Highest point End
(mag) Time Altitude Azimuth Time Altitude Azimuth Time Altitude Azimuth
Meteor PRIRODA 3.9 12:03:57 10° N 12:07:27 42° WNW 12:10:09 15° SW
Aureole 2 Rocket 2.3 12:07:07 36° WNW 12:07:56 47° WSW 12:11:04 10° S
Shenzhou-11 Module 2.0 12:08:27 44° NW 12:08:48 48° N 12:11:22 10° ENE
Cosmos 1943 Rocket 2.6 12:06:04 14° NW 12:10:11 36° WSW 12:15:08 10° S
ALOS 2.2 12:05:34 10° N 12:10:12 67° WNW 12:14:49 10° SSW
Meteor 2-2 Rocket 4.5 12:06:08 10° SSW 12:12:01 54° WNW 12:17:55 10° N
Cosmos 1802 Rocket 4.0 12:06:28 10° N 12:12:56 85° W 12:19:21 10° S
Cosmos 2084 3.7 12:10:32 20° WSW 12:13:30 52° NW 12:17:53 10° NNE
Sich 1 3.1 12:10:02 10° N 12:14:20 77° E 12:18:39 10° S
Cosmos 1805 Rocket 3.4 12:10:52 10° NNW 12:15:12 73° W 12:19:31 10° S
SKYMED 2 3.6 12:10:57 10° S 12:15:13 57° W 12:19:31 10° NNW
H-2A R/B 3.6 12:12:09 10° NNW 12:15:52 27° WNW 12:18:01 18° WSW
CZ-2C R/B 3.9 12:14:50 10° NNW 12:18:16 18° WNW 12:18:38 18° WNW
USA 267 4.4 12:16:14 10° S 12:20:57 21° WSW 12:23:49 16° W
Cosmos 1500 Rocket 4.5 12:18:34 10° NNW 12:22:14 26° W 12:25:52 10° SW
NOSS 3-3 (A) 3.9 12:22:10 10° SSW 12:27:57 88° ESE 12:34:25 10° NE
NOSS 3-3 (C) 3.9 12:22:15 10° SSW 12:28:03 87° ESE 12:34:32 10° NE
NOAA 6 4.1 12:23:12 10° NNE 12:28:24 88° ESE 12:33:33 10° SSW
FENGYUN 3A 3.9 12:26:57 10° N 12:32:09 47° WNW 12:37:20 10° SW
Cosmos 2016 Rocket 4.0 12:28:58 10° NNW 12:35:11 69° W 12:41:26 10° S
Cosmos 1151 Rocket 3.4 12:32:17 10° S 12:36:32 67° E 12:40:52 10° NNE
Okean O Rocket 1.5 12:34:47 10° N 12:39:09 75° WNW 12:43:28 10° SSW
Cosmos 967 Rocket 4.5 12:33:31 10° SW 12:39:54 75° WNW 12:46:25 10° NNE
Cosmos 1862 3.4 12:39:31 10° NNW 12:43:21 50° W 12:47:10 10° S
Cosmos 2369 Rocket 3.2 12:38:56 10° NW 12:43:29 25° WSW 12:48:00 10° SSW
Cosmos 1484 Rocket 4.4 12:42:42 10° NNW 12:45:06 16° WNW 12:47:30 10° WSW
Cosmos 1328 Rocket 3.6 12:40:53 10° S 12:45:20 88° E 12:49:48 10° N
Helios 1A Rocket 3.0 12:43:21 10° NNE 12:47:31 89° ESE 12:51:37 10° SSW
Cosmos 1340 3.1 12:45:26 10° N 12:49:11 66° E 12:52:54 10° SSE
SMAP 3.7 12:44:41 10° NNE 12:49:19 61° E 12:53:55 10° S
DELTA 2 R/B (1) 3.7 12:44:19 10° WSW 12:49:54 80° S 12:55:28 10° E
Cosmos 1656 Rocket 4.0 12:44:52 10° NW 12:50:19 49° WSW 12:55:45 10° S
Cosmos 1943 4.3 12:46:28 10° WSW 12:50:51 23° NW 12:55:16 10° N
USA 116 3.9 12:48:08 10° SSW 12:51:01 31° W 12:53:51 10° NNW
Cosmos 2233 Rocket 4.2 12:45:56 10° N 12:52:15 84° E 12:58:34 10° S
Cosmos 921 Rocket 4.2 12:49:26 10° NW 12:52:48 22° W 12:56:05 10° SSW
ADEOS Rocket 3.2 12:46:44 10° S 12:52:53 78° WSW 12:59:50 10° NNW
ATLAS 2AS CENTAUR R/B 4.1 12:49:44 10° NNW 12:56:49 40° NE 13:03:20 10° ESE
